Probability
0 1 3 2 1 0 0 0 0 0 0 0 1 2 2 1 0 0 0 0 0 0 0 0 1 2 3 5 5 6 7 7 6 6 6 6 6 6 6 6 6 6 4
1 2 3 2 1 0 0 0 0 0 0 1 2 3 2 1 0 0 0 0 0 0 0 0 0 1 2 5 6 6 7 7 6 6 6 6 6 6 6 6 6 5 4
1 2 2 1 0 0 0 0 0 0 0 1 2 3 2 1 0 0 0 0 0 0 0 1 1 1 2 4 5 5 5 5 6 6 6 6 6 6 6 6 6 4 2
1 1 1 0 0 0 0 0 0 0 0 0 1 2 2 1 0 0 0 0 0 0 0 1 2 3 3 3 3 3 2 4 6 6 6 6 6 6 6 6 4 3 1
0 0 0 0 0 0 0 0 0 0 0 0 0 1 1 1 0 0 0 0 0 0 0 1 2 2 2 2 1 1 2 3 5 6 6 6 6 6 6 5 3 1 0
0 0 0 0 0 0 0 0 0 0 0 0 0 0 0 0 0 0 0 0 0 0 0 0 1 1 1 1 0 1 2 3 4 6 6 6 6 6 6 5 2 0 0
0 0 0 0 0 0 0 0 0 0 0 0 0 0 0 0 0 0 0 0 0 0 0 0 0 0 0 0 0 0 2 4 5 5 6 6 6 6 6 3 1 0 0
0 0 0 0 0 0 0 0 0 0 0 0 0 0 0 0 0 0 0 0 0 0 0 0 0 0 0 0 0 0 1 3 4 5 6 6 6 6 5 2 0 0 0
0 0 0 0 0 0 0 0 0 0 0 0 0 0 0 0 0 0 0 0 0 0 0 0 0 0 0 0 0 0 0 1 3 4 6 6 6 6 5 3 1 0 0
0 0 0 0 0 0 0 0 0 0 0 0 0 0 0 0 0 0 0 0 0 0 0 0 0 0 0 0 0 0 0 0 1 4 5 6 6 6 5 3 1 0 0
0 0 0 0 0 0 0 0 0 0 0 0 0 0 0 0 0 0 0 0 0 0 0 0 0 0 0 0 0 0 0 0 0 2 4 6 6 6 6 5 3 1 1
0 0 0 0 0 0 0 0 0 0 0 0 0 0 0 0 0 0 0 0 0 0 0 0 0 0 0 0 0 0 0 0 0 0 2 5 6 6 6 6 5 3 2
0 0 0 0 0 0 0 0 0 0 0 0 0 0 0 0 0 0 0 0 0 0 0 0 0 0 0 0 0 0 0 0 0 0 1 3 4 5 5 5 5 4 3
0 0 0 0 0 0 0 0 0 0 0 0 0 0 0 0 0 0 0 0 0 0 0 0 0 0 0 0 0 0 0 0 0 0 0 1 1 2 2 3 3 2 1
0 0 0 0 0 0 0 0 0 0 0 0 0 0 0 0 0 0 0 0 0 0 0 0 0 0 0 0 0 0 0 0 0 0 0 0 0 0 0 1 1 1 0
0 0 0 0 0 0 0 0 0 0 0 0 0 0 0 0 0 0 0 0 0 0 0 0 0 0 0 0 0 0 0 0 0 0 0 0 0 0 0 0 0 0 0
0 0 0 0 0 0 0 0 0 0 0 0 0 0 0 0 0 0 0 0 0 0 0 0 0 0 0 0 0 0 0 0 0 0 0 0 0 0 0 0 0 0 0
0 0 0 0 0 0 0 0 0 0 0 0 0 0 0 0 0 0 0 0 0 0 0 0 0 0 0 0 0 0 0 0 0 0 0 0 0 0 0 0 0 0 0
0 0 0 0 0 0 0 0 0 0 0 0 0 0 0 0 0 0 0 0 0 0 0 0 0 0 0 0 0 0 0 0 0 0 0 0 0 0 0 0 0 0 0
0 0 0 0 0 0 0 0 0 0 0 0 0 0 0 0 0 0 0 0 0 0 0 0 0 0 0 0 0 0 0 0 0 0 0 0 0 0 0 0 0 0 0
0 0 0 0 0 0 0 0 0 0 0 0 0 0 0 0 0 0 0 0 0 0 0 0 0 0 0 0 0 0 0 0 0 0 0 0 0 0 0 0 0 0 0
0 0 0 0 0 0 0 0 0 0 0 0 0 0 0 0 0 0 0 0 0 0 0 0 0 0 0 0 0 0 0 0 0 0 0 0 0 0 0 0 0 0 0
0 0 0 0 0 0 0 0 0 0 0 0 0 0 0 0 0 0 0 0 0 0 0 0 0 0 0 0 0 0 0 0 0 0 0 0 0 0 0 0 0 0 0
0 0 0 0 0 0 0 0 0 0 0 0 0 0 0 0 0 0 0 0 0 0 0 0 0 0 0 0 0 0 0 0 0 0 0 0 0 0 0 0 0 0 0
0 0 0 0 0 0 0 0 0 0 0 0 0 0 0 0 0 0 0 0 0 0 0 0 0 0 0 0 0 0 0 0 0 0 0 0 0 0 0 0 0 0 0
0 0 0 0 0 0 0 0 0 0 0 0 0 0 0 0 0 0 0 0 0 0 0 0 0 0 0 0 0 0 0 0 0 0 0 0 0 0 0 0 0 0 0
Wind_Speed
3 2 2 2 3 3 3 3 3 4 4 4 4 5 5 5 5 4 4 9 10 10 10 9 9 8 8 8 8 8 8 8 8 8 7 7 7 7 7 7 6 6 6
3 3 3 3 3 2 2 3 3 3 3 3 4 4 4 4 4 5 4 6 10 10 9 9 9 8 8 7 7 7 8 7 7 6 7 6 6 5 5 5 5 6 6
4 3 3 2 2 2 3 3 4 3 3 3 4 4 3 4 4 4 4 4 4 8 9 9 9 9 8 8 7 7 7 7 7 6 6 6 6 5 5 5 4 5 5
5 4 3 2 2 2 2 3 3 3 3 3 3 3 3 3 4 4 4 4 3 4 6 9 9 9 9 8 8 7 6 5 6 5 5 5 5 5 5 4 4 4 4
5 4 3 2 2 2 2 2 2 2 3 2 2 2 2 2 2 3 4 4 4 4 4 6 8 8 8 8 8 7 6 5 5 5 4 4 5 4 4 4 4 4 5
4 4 3 3 2 2 2 2 2 2 2 2 2 3 2 2 2 3 3 3 4 5 4 5 4 5 8 8 8 7 6 6 5 4 4 4 4 4 4 4 4 4 4
4 4 3 3 2 2 2 2 2 3 2 2 2 2 3 2 2 2 2 3 4 4 4 5 4 3 4 8 8 8 6 6 5 4 4 4 4 4 4 4 4 5 5
4 4 4 3 2 2 3 2 2 2 1 1 2 2 1 2 2 2 2 2 3 3 4 5 4 4 3 3 6 8 7 6 6 5 5 5 5 5 5 5 5 5 6
3 4 4 4 3 3 3 2 2 3 2 0 1 2 2 1 1 2 2 2 2 2 3 3 3 4 4 3 3 6 8 7 7 6 6 6 6 6 6 7 7 7 7
3 4 4 4 4 3 3 3 2 2 3 2 0 1 1 2 2 1 2 1 2 2 2 2 3 3 3 3 4 7 8 8 7 7 7 6 6 7 7 7 7 7 8
3 3 4 4 4 3 4 3 2 2 2 2 1 1 1 1 1 2 2 2 2 2 1 2 2 2 3 3 3 5 8 8 8 8 8 7 7 8 8 8 8 9 9
2 3 4 4 4 4 4 4 3 3 2 2 1 1 2 2 1 1 2 2 3 3 3 2 1 2 2 2 4 8 8 8 9 9 9 8 8 8 9 9 9 9 9
3 4 4 4 4 4 4 3 3 3 3 3 2 2 1 2 2 2 2 2 2 2 2 2 2 2 2 2 3 7 8 9 9 9 10 9 9 9 10 10 10 10 10
4 4 3 3 3 3 3 3 2 3 3 3 3 2 2 2 2 2 2 2 2 2 2 3 2 2 2 2 4 8 5 9 10 10 10 10 9 10 10 10 10 11 11
3 4 3 3 3 3 3 3 2 2 2 2 3 3 2 2 2 2 2 3 3 3 4 3 2 2 2 2 5 4 4 8 10 10 10 10 10 10 10 10 10 11 11
3 4 4 3 3 3 3 3 2 2 2 2 2 2 2 2 2 2 2 2 2 3 4 3 3 3 4 4 7 5 4 9 9 10 10 11 11 11 11 10 11 11 11
4 4 4 4 3 3 3 3 3 3 3 3 2 3 3 2 2 2 2 2 2 2 4 4 3 3 3 4 5 4 4 3 4 10 11 11 11 10 11 10 10 11 11
4 4 4 4 4 4 3 4 4 3 4 4 4 3 4 3 3 2 2 3 3 3 3 5 4 3 4 4 4 4 4 4 4 9 11 11 10 10 10 10 10 11 11
3 3 4 4 4 4 4 4 4 4 4 5 4 5 5 4 4 3 3 3 3 3 3 4 5 3 3 3 3 4 4 3 4 6 9 9 10 10 11 11 11 11 11
3 3 4 4 4 4 4 4 4 4 4 4 5 5 5 5 5 5 4 4 4 3 3 4 5 4 3 3 2 3 4 3 4 5 6 7 8 10 11 11 11 11 11
3 3 3 3 3 3 4 5 5 5 5 5 4 5 5 7 8 7 5 5 4 4 4 4 4 4 4 3 3 2 4 4 4 4 3 4 4 4 5 8 10 11 11
2 3 3 3 4 4 6 8 6 5 5 5 5 4 5 6 8 9 10 9 8 6 5 5 5 5 5 4 3 4 3 3 4 2 2 4 3 4 4 3 8 12 12
2 3 3 4 4 5 8 8 8 4 4 4 5 4 4 5 6 5 7 9 9 10 10 7 6 6 5 5 4 5 4 4 5 3 3 5 3 5 4 5 11 12 12
2 3 3 3 4 5 8 8 7 3 3 4 5 5 5 5 5 5 5 4 5 5 7 6 6 6 5 4 4 4 4 4 4 4 3 4 4 4 5 4 9 11 11
2 3 3 3 3 5 7 7 5 2 3 4 4 4 5 4 8 8 5 4 4 5 7 9 9 8 8 8 6 2 2 3 4 4 2 3 3 4 4 4 6 9 10
2 2 2 2 3 4 7 6 5 2 3 3 3 4 6 7 8 8 5 4 5 5 4 4 5 5 5 5 7 4 3 3 3 3 2 2 3 3 4 3 3 4 5
Wind_Direction
99 80 71 63 58 54 56 59 59 59 59 57 58 61 55 49 42 33 24 40 47 51 54 54 54 53 53 54 59 61 61 59 60 59 60 59 58 58 55 49 44 41 39
107 97 81 69 61 60 59 65 67 66 58 58 60 59 56 50 46 41 32 31 40 44 48 50 49 47 48 51 54 57 57 55 56 56 55 55 54 54 52 48 39 32 29
111 104 95 78 63 62 67 67 62 62 61 55 56 53 57 54 50 43 35 30 26 35 42 46 46 45 43 43 46 48 51 51 49 50 49 47 45 46 44 39 33 27 18
113 107 101 87 76 70 66 76 67 69 59 55 53 42 42 50 52 48 42 35 30 26 29 40 43 41 38 37 39 38 39 42 39 39 40 38 34 33 31 26 20 13 5
117 113 108 100 94 87 72 80 68 81 80 63 62 55 43 44 44 49 47 42 39 36 25 29 37 38 35 33 32 31 30 26 24 24 21 22 19 17 16 13 9 3 360
120 115 112 105 106 105 82 79 86 72 90 80 72 50 32 29 50 53 48 41 39 38 33 30 24 25 29 26 24 21 19 16 9 3 357 354 351 350 352 352 348 343 341
132 127 126 121 114 114 110 106 108 96 71 79 79 48 19 24 49 52 48 49 36 30 30 28 23 21 10 16 14 11 4 4 359 353 347 337 327 323 325 325 326 326 324
146 143 139 140 134 124 116 116 120 119 106 75 101 99 43 3 8 20 36 55 38 25 25 21 17 17 5 357 358 3 355 352 350 341 334 329 326 316 310 309 308 312 314
151 148 150 149 149 147 153 157 152 135 151 109 85 123 141 191 311 336 7 31 27 25 10 2 7 1 358 354 337 350 351 348 339 330 329 322 317 315 311 301 300 302 305
158 161 160 161 160 163 165 177 166 157 152 162 106 62 126 149 157 305 322 345 351 357 346 348 345 340 346 339 339 348 346 343 333 325 322 321 315 309 304 304 304 301 300
172 171 173 171 170 172 173 176 175 164 162 170 170 145 89 66 138 169 263 304 322 306 313 314 312 313 324 323 324 333 336 333 328 323 320 316 314 312 304 301 301 301 302
184 182 180 180 180 178 178 182 185 180 178 174 172 173 169 176 188 177 216 267 286 292 295 284 276 292 306 312 319 334 331 329 324 318 315 315 317 315 312 304 298 299 300
195 196 189 185 184 183 181 176 181 192 186 181 186 198 200 208 192 188 194 245 276 289 292 288 261 275 295 306 314 324 323 323 319 317 314 311 314 315 314 311 303 299 300
196 190 184 183 185 182 177 167 181 197 187 189 200 198 209 215 198 195 191 194 278 282 273 268 283 263 286 300 308 318 315 318 314 313 311 309 309 310 310 310 309 303 299
180 173 179 181 185 183 176 168 185 195 185 197 202 206 215 220 212 210 198 191 200 257 272 256 267 282 296 295 298 302 296 309 311 308 307 308 306 306 305 305 304 305 304
176 172 187 191 187 184 181 172 182 190 185 206 209 204 219 220 219 214 208 218 213 224 259 258 257 275 286 293 296 297 290 305 307 303 301 302 302 301 302 301 299 300 300
181 184 192 190 190 192 189 183 194 194 197 209 218 215 226 223 223 225 223 226 229 218 252 276 271 274 278 282 293 289 283 283 290 297 297 296 297 299 300 300 299 298 299
187 189 191 194 198 199 197 193 201 205 204 212 218 222 233 236 234 230 226 230 234 228 234 265 279 274 268 268 274 279 288 290 283 291 293 294 296 298 298 300 299 296 296
184 187 192 198 202 202 204 207 204 210 215 219 219 221 229 226 235 233 229 233 238 245 233 246 270 272 269 270 275 284 285 283 289 292 292 295 298 298 298 299 299 298 298
182 191 200 203 205 210 215 216 215 216 218 227 230 229 228 226 230 229 234 232 232 239 236 242 261 270 272 267 256 274 292 288 291 297 291 295 300 303 303 303 301 301 300
195 197 200 207 213 217 219 216 215 215 214 222 230 234 237 238 238 237 237 230 223 227 234 241 252 265 267 265 259 262 276 290 288 280 281 286 292 290 295 298 299 297 296
199 199 206 209 215 230 237 233 226 215 213 218 227 236 243 248 250 253 254 251 242 232 231 236 249 248 257 254 255 257 264 279 286 278 275 284 280 279 279 273 289 293 294
199 208 213 212 220 231 241 238 236 217 203 213 221 228 241 249 258 250 254 259 259 257 251 246 243 246 249 244 242 252 256 263 267 276 286 285 276 275 276 283 290 290 294
205 213 224 227 233 242 245 243 241 215 209 219 226 226 231 239 247 249 246 249 253 259 257 253 243 244 245 244 236 241 250 267 272 273 268 274 279 277 285 280 286 289 296
218 219 226 225 233 250 253 246 239 201 216 227 233 233 231 232 246 254 248 240 255 264 269 262 256 251 254 256 251 238 244 256 273 275 252 254 277 293 288 279 281 290 296
224 236 248 237 239 246 252 244 238 216 222 229 235 238 244 247 251 253 235 223 243 257 259 265 267 268 263 259 263 247 235 243 264 274 249 254 276 303 296 280 279 289 293